Location: Hamburg
(53.5554°N, 9.9941°E)
Time: 22:19:33
(UTC+01:00)

ISS - Pass Details

Date: 10 January 2018
Orbit: 401 x 407 km, 51.6° (Epoch: 17 January)

Event Time Altitude Azimuth Distance (km) Brightness Sun altitude
Exits shadow 04:59:44 12° 102° (ESE) 1,331 -0.4 -30.4°
Drops below altitude 10° 05:00:00 10° 101° (E) 1,440 -0.2 -30.4°
Sets 05:02:10 0° 98° (E) 2,327 1.2 -30.1°
